Find Starlink 30237

NORAD ID: 57437 Int'l Des: 2023-105 Owner: SPXS Country: US Constellation: starlink operational
LEOCIRCULAR

Live Position

Loading 3D Globe...

About Starlink 30237

Description loading...

Upcoming Passes

Passes for default location (London). Set your location on the main map for personalized predictions.

Altitude History

Loading altitude history...

Two-Line Element Set

1 57437U 23105H 26125.50001156 .00625634 17973-3 11807-2 0 9996
2 57437 42.9849 246.8914 0021594 359.4271 215.6754 15.99509549 6013
Epoch: May 5, 2026 • Age: 9 hours

Current Status

Altitude 292.5 km
Velocity 7.73 km/s
Sub-Earth Point -33.16°S, 71.03°W
Launch Date Jul 24, 2023
Age 2.7 years
Type internet

Technical Details

Classification Payload
Mass 730.00 kg
Dry Mass 700.00 kg
Total Mass 730.00 kg
Length 0.30 m
Diameter 4.10 m
Span 29.00 m
Shape Box + pan
Manufacturer SPXS
Bus Type Starlink V2M
Phase Status In Orbit
Owner/State SPXS/US

Most Searched